Погода в Григорьевке

Россия / Оренбургская область     51°06′18″N   55°18′08″E
темп.,
°C
ветер,
м/с
пор.,
м/с
влажн.,
%
обл.,
%
осадки,
мм/ч
давл.,
гПа
погр.,
м
5 августа, чт
чт523:00+30ю442080 0.0 101042
02:00+29ююз3422100 0.0 100954
05:00+27ссз1127100 0.0 101018
08:00+30зюз1123100 0.0 100990
11:00+34сз5519100 0.0 1009993
14:00+37сз5718100 0.0 10082826
17:00+35з8822100 0.0 10081908
20:00+29ююз6839100 0.3 1009414
6 августа, пт
пт623:00+25з364897 0.7 1009102
02:00+23ссз51047100 0.0 1009283
05:00+21с51060100 0.0 1010310
08:00+23с61154100 0.0 1011513
11:00+27с66360 0.0 10121576
14:00+30ссз76261 0.0 10112343
17:00+31с77215 0.0 10112543
20:00+28с58242 0.0 1011545
7 августа, сб
сб723:00+22с410377 0.0 1012214
02:00+20ссв410512 0.0 1013225
05:00+18св4858100 0.0 1014152
08:00+21св574822 0.0 1015268
11:00+26ссв55275 0.0 10151323
14:00+30с45175 0.0 10141907
17:00+31с66124 0.0 10142105
20:00+28ссв59190 0.0 1014406
8 августа, вс
вс823:00+22св410325 0.0 1015177
02:00+20св34365 0.0 101664
05:00+19св354092 0.0 101790
08:00+21св4536100 0.0 1018243
11:00+26св45285 0.0 10171111
14:00+30ссв552340 0.0 10161704
17:00+31ссв67214 0.0 10161977
20:00+29ссв582294 0.0 1016457
9 августа, пн
пн923:00+22св4102882 0.0 1017186
02:00+19св4937100 0.0 1018149
05:00+18св474299 0.0 1018140
08:00+21всв4636100 0.0 1018238
11:00+27в5524100 0.0 1018956
14:00+31в43175 0.0 10171602
17:00+32в321514 0.0 10161941
20:00+29в331973 0.0 101535